星链-1212 (STARLINK-1212 )

导读 | 星芒AI

STARLINK-1212 是 SpaceX Starlink 项目中的一颗低轨通信卫星,属于第 12 批部署的星链卫星之一。该卫星于 2021 年 11 月发射,运行在约 550 公里的轨道高度,旨在为全球用户提供高速互联网服务。它采用先进的相控阵天线和激光通信技术,具备高带宽和低延迟特性,支持偏远地区的网络接入。作为星链星座的重要组成部分,STARLINK-1212 有助于提升全球互联网覆盖范围与服务质量。

基本信息
目录编号:
45223
目录名称:
STARLINK-1212
国际标识:
2020-012AX
轨道中心:
EARTH
卫星名称:
星链-1212
卫星全名:
星链-1212 (STARLINK-1212 )
卫星状态:
在轨 (已飞行2129 天)
发射日期:
2020-02-17 UTC
国别 :
美国 (US)
星等 :
--
轨道信息
数据来源 国际轨道数据
星历时间: 2025-12-15T16:30:00+0800
17小时前
查看轨道信息
半长轴: 6925.363km
偏心率: 0.0001346
轨道倾角: 53.056°
近地点辐角 89.729°
升交点赤经 25.873°
平近点角 270.386°
近地点: 546.295km
远地点: 548.161km
周期: 95.592分钟
每日圈数: 15.063956
详细信息
固有亮度:
5
最大亮度:
2.5
卫星平台:
Starlink V1.0
覆盖范围:
全球
运营商:
太空探索技术公司
运营商所在国:
美国
制造商(研发单位):
太空探索技术公司
制造商所在国:
美国
使用方式:
暂无
卫星简介
星链(Starlink)计划是由太空探索技术公司(SpaceX)提出的一个巨型低轨卫星互联网星座项目,计划在2019年至2024年间在太空搭建由约1.2万颗卫星组成的“星链”网络,其中1584颗将部署在地球上空550千米处的近地轨道,并从2020年开始工作。该卫星仍在工作。
2D轨道图
3D轨道图
轨道高度分析图
轨道倾角分析图
轨道综合分析图
查看轨道综合分析图